• In Österreich
  • Länderverzeichnis
  • Für 7 Tage
  • Wassertemperatur
  • Satellitenkarten
  • Wetterkarte
  • News
  • Widgets
  • user-avatar
    Anmelden

    Stündliche Wetter Santiago del Estero

    Heute, 26 Mai, Samstag

    Zeit Temperatur Niederschläge Wind Luftdruck Luftfeuchtigkeit
    00:00 +14°C° 0 mm 3 m/S 743 mmHg 62%
    01:00 +14°C° 0 mm 3 m/S 743 mmHg 64%
    02:00 +14°C° 0 mm 3 m/S 743 mmHg 65%
    03:00 +14°C° 0 mm 3 m/S 742 mmHg 66%
    04:00 +13°C° 0 mm 3 m/S 742 mmHg 67%
    05:00 +13°C° 0 mm 3 m/S 741 mmHg 67%
    06:00 +13°C° 0 mm 4 m/S 741 mmHg 67%
    07:00 +14°C° 0 mm 4 m/S 741 mmHg 67%
    08:00 +14°C° 0 mm 4 m/S 741 mmHg 67%
    09:00 +17°C° 0 mm 5 m/S 741 mmHg 60%
    10:00 +20°C° 0 mm 6 m/S 741 mmHg 53%
    11:00 +23°C° 0 mm 7 m/S 741 mmHg 45%
    12:00 +24°C° 0 mm 7 m/S 740 mmHg 43%
    13:00 +27°C° 0 mm 7 m/S 740 mmHg 41%
    14:00 +28°C° 0 mm 7 m/S 739 mmHg 38%
    15:00 +27°C° 0 mm 6 m/S 739 mmHg 41%
    16:00 +27°C° 0 mm 5 m/S 739 mmHg 45%
    17:00 +26°C° 0 mm 3 m/S 739 mmHg 48%
    18:00 +24°C° 0 mm 3 m/S 739 mmHg 52%
    19:00 +22°C° 0 mm 3 m/S 740 mmHg 56%
    20:00 +20°C° 0 mm 3 m/S 740 mmHg 60%
    21:00 +20°C° 0 mm 3 m/S 741 mmHg 62%
    22:00 +19°C° 0 mm 2 m/S 741 mmHg 65%
    23:00 +19°C° 0 mm 2 m/S 741 mmHg 67%

    Morgen, 27 Mai, Sonntag

    Zeit Temperatur Niederschläge Wind Luftdruck Luftfeuchtigkeit
    00:00 +18°C° 0 mm 2 m/S 741 mmHg 70%
    01:00 +18°C° 0 mm 2 m/S 741 mmHg 72%
    02:00 +17°C° 0 mm 2 m/S 741 mmHg 74%
    03:00 +18°C° 0 mm 1 m/S 741 mmHg 77%
    04:00 +18°C° 0 mm 1 m/S 741 mmHg 79%
    05:00 +18°C° 0 mm 1 m/S 742 mmHg 81%
    06:00 +18°C° 0 mm 1 m/S 742 mmHg 80%
    07:00 +19°C° 0 mm 1 m/S 743 mmHg 79%
    08:00 +19°C° 0 mm 1 m/S 743 mmHg 78%
    09:00 +21°C° 0 mm 2 m/S 744 mmHg 71%
    10:00 +24°C° 0 mm 2 m/S 744 mmHg 64%
    11:00 +26°C° 0 mm 3 m/S 744 mmHg 57%
    12:00 +27°C° 0 mm 3 m/S 743 mmHg 53%
    13:00 +29°C° 0 mm 4 m/S 742 mmHg 50%
    14:00 +30°C° 0 mm 4 m/S 741 mmHg 47%
    15:00 +29°C° 0 mm 4 m/S 741 mmHg 50%
    16:00 +29°C° 0 mm 3 m/S 741 mmHg 53%
    17:00 +28°C° 0 mm 2 m/S 740 mmHg 56%
    18:00 +27°C° 0 mm 3 m/S 741 mmHg 58%
    19:00 +27°C° 0 mm 3 m/S 741 mmHg 60%
    20:00 +26°C° 0 mm 4 m/S 741 mmHg 62%
    21:00 +26°C° 0 mm 4 m/S 741 mmHg 63%
    22:00 +25°C° 0 mm 4 m/S 741 mmHg 64%
    23:00 +25°C° 0 mm 4 m/S 740 mmHg 66%

    übermorgen, 28 Mai, Montag

    Zeit Temperatur Niederschläge Wind Luftdruck Luftfeuchtigkeit
    00:00 +25°C° 0 mm 4 m/S 740 mmHg 67%
    01:00 +23°C° 0 mm 4 m/S 739 mmHg 68%
    02:00 +23°C° 0 mm 4 m/S 739 mmHg 69%
    03:00 +23°C° 0 mm 4 m/S 738 mmHg 68%
    04:00 +23°C° 0 mm 4 m/S 738 mmHg 67%
    05:00 +23°C° 0 mm 4 m/S 738 mmHg 67%
    06:00 +23°C° 0 mm 5 m/S 738 mmHg 65%
    07:00 +23°C° 0 mm 5 m/S 738 mmHg 63%
    08:00 +24°C° 0 mm 6 m/S 738 mmHg 61%
    09:00 +27°C° 0 mm 7 m/S 738 mmHg 55%
    10:00 +29°C° 0 mm 9 m/S 738 mmHg 49%
    11:00 +32°C° 0 mm 11 m/S 738 mmHg 43%
    12:00 +33°C° 0 mm 11 m/S 737 mmHg 42%
    13:00 +33°C° 0 mm 10 m/S 737 mmHg 41%
    14:00 +34°C° 0 mm 10 m/S 736 mmHg 39%
    15:00 +33°C° 0 mm 9 m/S 736 mmHg 42%
    16:00 +32°C° 0 mm 7 m/S 736 mmHg 45%
    17:00 +30°C° 0 mm 6 m/S 735 mmHg 47%
    18:00 +30°C° 0 mm 6 m/S 736 mmHg 48%
    19:00 +29°C° 0 mm 6 m/S 736 mmHg 49%
    20:00 +28°C° 0 mm 5 m/S 736 mmHg 50%
    21:00 +27°C° 0 mm 5 m/S 736 mmHg 50%
    22:00 +27°C° 0 mm 5 m/S 736 mmHg 50%
    23:00 +27°C° 0 mm 5 m/S 736 mmHg 50%

    29 Mai, Dienstag

    Zeit Temperatur Niederschläge Wind Luftdruck Luftfeuchtigkeit
    00:00 +26°C° 0 mm 6 m/S 736 mmHg 50%
    01:00 +26°C° 0 mm 6 m/S 736 mmHg 50%
    02:00 +26°C° 0 mm 6 m/S 735 mmHg 50%
    03:00 +26°C° 0 mm 6 m/S 735 mmHg 50%
    04:00 +24°C° 0 mm 6 m/S 735 mmHg 51%
    05:00 +24°C° 0 mm 6 m/S 735 mmHg 52%
    06:00 +24°C° 0 mm 6 m/S 735 mmHg 53%
    07:00 +25°C° 0 mm 5 m/S 736 mmHg 54%
    08:00 +25°C° 0 mm 5 m/S 736 mmHg 56%
    09:00 +27°C° 0 mm 6 m/S 736 mmHg 53%
    10:00 +29°C° 0 mm 7 m/S 737 mmHg 50%
    11:00 +31°C° 0 mm 8 m/S 737 mmHg 47%
    12:00 +32°C° 0 mm 7 m/S 736 mmHg 45%
    13:00 +33°C° 0 mm 6 m/S 736 mmHg 44%
    14:00 +33°C° 0 mm 6 m/S 735 mmHg 42%
    15:00 +33°C° 0 mm 4 m/S 736 mmHg 46%
    16:00 +31°C° 0 mm 3 m/S 736 mmHg 49%
    17:00 +30°C° 0 mm 2 m/S 736 mmHg 52%
    18:00 +29°C° 0 mm 2 m/S 737 mmHg 55%
    19:00 +28°C° 0 mm 2 m/S 737 mmHg 57%
    20:00 +27°C° 0 mm 2 m/S 738 mmHg 59%
    21:00 +26°C° 0 mm 2 m/S 739 mmHg 60%
    22:00 +26°C° 0 mm 2 m/S 739 mmHg 61%
    23:00 +26°C° 0 mm 2 m/S 740 mmHg 62%

    30 Mai, Mittwoch

    Zeit Temperatur Niederschläge Wind Luftdruck Luftfeuchtigkeit
    00:00 +25°C° 0 mm 3 m/S 740 mmHg 62%
    01:00 +23°C° 0 mm 5 m/S 740 mmHg 62%
    02:00 +22°C° 0 mm 6 m/S 741 mmHg 61%
    03:00 +21°C° 0 mm 7 m/S 741 mmHg 60%
    04:00 +18°C° 0 mm 7 m/S 741 mmHg 59%
    05:00 +17°C° 0 mm 8 m/S 742 mmHg 57%
    06:00 +17°C° 0 mm 7 m/S 743 mmHg 59%
    07:00 +16°C° 0 mm 7 m/S 743 mmHg 60%
    08:00 +16°C° 0 mm 7 m/S 744 mmHg 62%
    09:00 +15°C° 0,1 mm 6 m/S 745 mmHg 64%
    10:00 +15°C° 0,1 mm 6 m/S 745 mmHg 66%
    11:00 +14°C° 0,1 mm 6 m/S 745 mmHg 67%
    12:00 +14°C° 0,1 mm 6 m/S 745 mmHg 67%
    13:00 +15°C° 0,1 mm 6 m/S 744 mmHg 66%
    14:00 +15°C° 0,1 mm 6 m/S 744 mmHg 66%
    15:00 +14°C° 0,1 mm 5 m/S 744 mmHg 65%
    16:00 +14°C° 0,1 mm 5 m/S 744 mmHg 64%
    17:00 +14°C° 0,1 mm 5 m/S 745 mmHg 63%
    18:00 +14°C° 0,1 mm 5 m/S 745 mmHg 65%
    19:00 +13°C° 0,1 mm 5 m/S 746 mmHg 66%
    20:00 +13°C° 0,1 mm 5 m/S 747 mmHg 68%
    21:00 +13°C° 0,2 mm 5 m/S 747 mmHg 70%
    22:00 +12°C° 0,2 mm 5 m/S 748 mmHg 73%
    23:00 +12°C° 0,2 mm 5 m/S 748 mmHg 75%

    31 Mai, Donnerstag

    Zeit Temperatur Niederschläge Wind Luftdruck Luftfeuchtigkeit
    00:00 +11°C° 0,2 mm 6 m/S 748 mmHg 75%
    01:00 +11°C° 0,2 mm 6 m/S 748 mmHg 75%
    02:00 +10°C° 0,2 mm 6 m/S 748 mmHg 74%
    03:00 +10°C° 0,1 mm 5 m/S 749 mmHg 71%
    04:00 +10°C° 0,1 mm 5 m/S 749 mmHg 67%
    05:00 +10°C° 0,1 mm 5 m/S 749 mmHg 63%
    06:00 +11°C° 0 mm 4 m/S 750 mmHg 60%
    07:00 +11°C° 0 mm 3 m/S 751 mmHg 57%
    08:00 +11°C° 0 mm 3 m/S 752 mmHg 54%
    09:00 +12°C° 0 mm 3 m/S 752 mmHg 48%
    10:00 +13°C° 0 mm 4 m/S 752 mmHg 42%
    11:00 +14°C° 0 mm 4 m/S 753 mmHg 36%
    12:00 +15°C° 0 mm 4 m/S 752 mmHg 34%
    13:00 +16°C° 0 mm 5 m/S 751 mmHg 32%
    14:00 +17°C° 0 mm 5 m/S 750 mmHg 30%
    15:00 +17°C° 0 mm 4 m/S 750 mmHg 33%
    16:00 +15°C° 0 mm 4 m/S 750 mmHg 36%
    17:00 +16°C° 0 mm 3 m/S 750 mmHg 39%
    18:00 +13°C° 0 mm 3 m/S 750 mmHg 43%
    19:00 +12°C° 0 mm 3 m/S 751 mmHg 47%
    20:00 +12°C° 0 mm 2 m/S 752 mmHg 52%
    21:00 +10°C° 0 mm 2 m/S 752 mmHg 55%
    22:00 +9°C° 0 mm 2 m/S 752 mmHg 58%
    23:00 +9°C° 0 mm 2 m/S 753 mmHg 62%
    Mehr zeigen